Overview Statistics Trail Chart Weather Telemetry Raw packets
 

This is the latest recevied weather packets stored in our database for station/object S51UL-6. If no packets are shown the sender has not sent any weather packets the latest 10 day(s).

<< 31 32 33 34 35 36 37 >>
Time Temp. Humidity Pressure Rain* Wind** Luminosity Snow
1788423366 23.33° C 74% 1022.4 hPa 1.52 mm - - -
1788423066 22.78° C 75% 1022.4 hPa 1.52 mm - - -
1788422769 22.22° C 76% 1022.4 hPa 1.52 mm - - -
1788422467 22.22° C 75% 1022.3 hPa 2.03 mm - - -
1788422166 22.22° C 75% 1022.3 hPa 2.03 mm - - -
1788421867 22.78° C 76% 1022.3 hPa 3.05 mm - - -
1788421566 22.78° C 76% 1022.2 hPa 3.05 mm - - -
1788421267 22.22° C 77% 1022.2 hPa 3.05 mm - - -
1788420969 22.22° C 78% 1022.3 hPa 2.54 mm - - -
1788420367 21.67° C 80% 1022.4 hPa 3.05 mm - - -
1788420067 21.11° C 80% 1022.5 hPa 2.54 mm - - -
1788419170 21.11° C 83% 1022.4 hPa 2.54 mm - - -
1788418867 20.56° C 84% 1022.5 hPa 2.03 mm - - -
1788418570 20.56° C 85% 1022.4 hPa 2.03 mm - - -
1788418267 20° C 87% 1022.4 hPa 1.02 mm - - -
1788417967 19.44° C 87% 1022.5 hPa 1.02 mm - - -
1788417667 19.44° C 88% 1022.4 hPa 1.02 mm - - -
1788417367 18.89° C 89% 1022.3 hPa 1.02 mm - - -
1788416767 18.33° C 90% 1022.2 hPa 0.51 mm - - -
1788416468 17.78° C 89% 1022.2 hPa 0.51 mm - - -
1788416167 17.78° C 89% 1022.1 hPa 0.51 mm - - -
1788415868 17.22° C 89% 1022.2 hPa 0.51 mm - - -
1788415570 17.22° C 90% 1022.3 hPa 0.51 mm - - -
1788415268 16.67° C 90% 1022 hPa 0.51 mm - - -
1788414968 16.67° C 90% 1022.1 hPa 0.51 mm - - -

* Rain latest hour (hover to see other rain measurements)
** Current wind speed in m/s (hover to see current wind gust speed)